QPF
0.00 0.00 0.00 0.00 0.00 0.00 0.00 0.00 0.00 0.00 0.00 0.00 0.00 0.00 0.00 0.00 0.00 0.00 0.00 0.00 0.00 0.00 0.00 0.00 0.00 0.00 0.00 0.00 0.00 0.00 0.00 0.00 0.00 0.00 0.00 0.00 0.00 0.00 0.00 0.00 0.00 0.00 0.00 0.00 0.00
0.00 0.00 0.00 0.00 0.00 0.00 0.00 0.00 0.00 0.00 0.00 0.00 0.00 0.00 0.00 0.00 0.00 0.00 0.00 0.00 0.00 0.00 0.00 0.00 0.00 0.00 0.00 0.00 0.00 0.00 0.00 0.00 0.00 0.00 0.00 0.00 0.00 0.00 0.00 0.00 0.00 0.00 0.00 0.00 0.00
0.00 0.00 0.00 0.00 0.00 0.00 0.00 0.00 0.00 0.00 0.00 0.00 0.00 0.00 0.00 0.00 0.00 0.00 0.00 0.00 0.00 0.00 0.00 0.00 0.00 0.00 0.00 0.00 0.00 0.00 0.00 0.00 0.00 0.00 0.00 0.00 0.00 0.00 0.00 0.00 0.00 0.00 0.00 0.00 0.00
0.00 0.00 0.00 0.00 0.00 0.00 0.00 0.00 0.00 0.00 0.00 0.00 0.00 0.00 0.00 0.00 0.00 0.00 0.00 0.00 0.00 0.00 0.00 0.00 0.00 0.00 0.00 0.00 0.00 0.00 0.00 0.00 0.00 0.00 0.00 0.00 0.00 0.00 0.00 0.00 0.00 0.00 0.00 0.00 0.00
0.00 0.00 0.00 0.00 0.00 0.00 0.00 0.00 0.00 0.00 0.00 0.00 0.00 0.00 0.00 0.00 0.00 0.00 0.00 0.00 0.00 0.00 0.00 0.00 0.00 0.00 0.00 0.00 0.00 0.00 0.00 0.00 0.00 0.00 0.00 0.00 0.00 0.00 0.00 0.00 0.00 0.00 0.00 0.00 0.00
0.00 0.00 0.00 0.00 0.00 0.00 0.00 0.00 0.00 0.00 0.00 0.00 0.00 0.00 0.00 0.00 0.00 0.00 0.00 0.00 0.00 0.00 0.00 0.00 0.00 0.00 0.00 0.00 0.00 0.00 0.00 0.00 0.00 0.00 0.00 0.00 0.00 0.00 0.00 0.00 0.00 0.00 0.00 0.00 0.00
0.00 0.00 0.00 0.00 0.00 0.00 0.00 0.00 0.00 0.00 0.00 0.00 0.00 0.00 0.00 0.00 0.00 0.00 0.00 0.00 0.00 0.00 0.00 0.00 0.00 0.00 0.00 0.00 0.00 0.00 0.00 0.00 0.00 0.00 0.00 0.00 0.00 0.00 0.00 0.00 0.00 0.00 0.00 0.00 0.00
0.00 0.00 0.00 0.00 0.00 0.00 0.00 0.00 0.00 0.00 0.00 0.00 0.00 0.00 0.00 0.00 0.00 0.00 0.00 0.00 0.00 0.00 0.00 0.00 0.00 0.00 0.00 0.00 0.00 0.00 0.00 0.00 0.00 0.00 0.00 0.00 0.00 0.00 0.00 0.00 0.00 0.00 0.00 0.00 0.00
0.00 0.00 0.00 0.00 0.00 0.00 0.00 0.00 0.00 0.00 0.00 0.00 0.00 0.00 0.00 0.00 0.00 0.00 0.00 0.00 0.00 0.00 0.00 0.00 0.00 0.00 0.00 0.00 0.00 0.00 0.00 0.00 0.00 0.00 0.00 0.00 0.00 0.00 0.00 0.00 0.00 0.00 0.00 0.00 0.00
0.00 0.00 0.00 0.00 0.00 0.00 0.00 0.00 0.00 0.00 0.00 0.00 0.00 0.00 0.00 0.00 0.00 0.00 0.00 0.00 0.00 0.00 0.00 0.00 0.00 0.00 0.00 0.00 0.00 0.00 0.00 0.00 0.00 0.00 0.00 0.00 0.00 0.00 0.00 0.00 0.00 0.00 0.00 0.00 0.00
0.00 0.00 0.00 0.00 0.00 0.00 0.00 0.00 0.00 0.00 0.00 0.00 0.00 0.00 0.00 0.00 0.00 0.00 0.00 0.00 0.00 0.00 0.00 0.00 0.00 0.00 0.00 0.00 0.00 0.00 0.00 0.00 0.00 0.00 0.00 0.00 0.00 0.00 0.00 0.00 0.00 0.00 0.00 0.00 0.00
0.00 0.00 0.00 0.00 0.00 0.00 0.00 0.00 0.00 0.00 0.00 0.00 0.00 0.00 0.00 0.00 0.00 0.00 0.00 0.00 0.00 0.00 0.00 0.00 0.00 0.00 0.00 0.00 0.00 0.00 0.00 0.00 0.00 0.00 0.00 0.00 0.00 0.00 0.00 0.00 0.00 0.00 0.00 0.00 0.00
0.00 0.00 0.00 0.00 0.00 0.00 0.00 0.00 0.00 0.00 0.00 0.00 0.00 0.00 0.00 0.00 0.00 0.00 0.00 0.00 0.00 0.00 0.00 0.00 0.00 0.00 0.00 0.00 0.00 0.00 0.00 0.00 0.00 0.00 0.00 0.00 0.00 0.00 0.00 0.00 0.00 0.00 0.00 0.00 0.00
0.00 0.00 0.00 0.00 0.00 0.00 0.00 0.00 0.00 0.00 0.00 0.00 0.00 0.00 0.00 0.00 0.00 0.00 0.00 0.00 0.00 0.00 0.00 0.00 0.00 0.00 0.00 0.00 0.00 0.00 0.00 0.00 0.00 0.00 0.00 0.00 0.00 0.00 0.00 0.00 0.00 0.00 0.00 0.00 0.00
0.00 0.00 0.00 0.00 0.00 0.00 0.00 0.00 0.00 0.00 0.00 0.00 0.00 0.00 0.00 0.00 0.00 0.00 0.00 0.00 0.00 0.00 0.00 0.00 0.00 0.00 0.00 0.00 0.00 0.00 0.00 0.00 0.00 0.00 0.00 0.00 0.00 0.00 0.00 0.00 0.00 0.00 0.00 0.00 0.00
0.00 0.00 0.00 0.00 0.00 0.00 0.00 0.00 0.00 0.00 0.00 0.00 0.00 0.00 0.00 0.00 0.00 0.00 0.00 0.00 0.00 0.00 0.00 0.00 0.00 0.00 0.00 0.00 0.00 0.00 0.00 0.00 0.00 0.00 0.00 0.00 0.00 0.00 0.00 0.00 0.00 0.00 0.00 0.00 0.00
0.00 0.00 0.00 0.00 0.00 0.00 0.00 0.00 0.00 0.00 0.00 0.00 0.00 0.00 0.00 0.00 0.00 0.00 0.00 0.00 0.00 0.00 0.00 0.00 0.00 0.00 0.00 0.00 0.00 0.00 0.00 0.00 0.00 0.00 0.00 0.00 0.00 0.00 0.00 0.00 0.00 0.00 0.00 0.00 0.00
0.00 0.00 0.00 0.00 0.00 0.00 0.00 0.00 0.00 0.00 0.00 0.00 0.00 0.00 0.00 0.00 0.00 0.00 0.00 0.00 0.00 0.00 0.00 0.00 0.00 0.00 0.00 0.00 0.00 0.00 0.00 0.00 0.00 0.00 0.00 0.00 0.00 0.00 0.00 0.00 0.00 0.00 0.00 0.00 0.00
0.00 0.00 0.00 0.00 0.00 0.00 0.00 0.00 0.00 0.00 0.00 0.00 0.00 0.00 0.00 0.00 0.00 0.00 0.00 0.00 0.00 0.00 0.00 0.00 0.00 0.00 0.00 0.00 0.00 0.00 0.00 0.00 0.00 0.00 0.00 0.00 0.00 0.00 0.00 0.00 0.00 0.00 0.00 0.00 0.00
0.00 0.00 0.00 0.00 0.00 0.00 0.00 0.00 0.00 0.00 0.00 0.00 0.00 0.00 0.00 0.00 0.00 0.00 0.00 0.00 0.00 0.00 0.00 0.00 0.00 0.00 0.00 0.00 0.00 0.00 0.00 0.00 0.00 0.00 0.00 0.00 0.00 0.00 0.00 0.00 0.00 0.00 0.00 0.00 0.00
0.00 0.00 0.00 0.00 0.00 0.00 0.00 0.00 0.00 0.00 0.00 0.00 0.00 0.00 0.00 0.00 0.00 0.00 0.00 0.00 0.00 0.00 0.00 0.00 0.00 0.00 0.00 0.00 0.00 0.00 0.00 0.00 0.00 0.00 0.00 0.00 0.00 0.00 0.00 0.00 0.00 0.00 0.00 0.00 0.00
0.00 0.00 0.00 0.00 0.00 0.00 0.00 0.00 0.00 0.00 0.00 0.00 0.00 0.00 0.00 0.00 0.00 0.00 0.00 0.00 0.00 0.00 0.00 0.00 0.00 0.00 0.00 0.00 0.00 0.00 0.00 0.00 0.00 0.00 0.00 0.00 0.00 0.00 0.00 0.00 0.00 0.00 0.00 0.00 0.00
0.00 0.00 0.00 0.00 0.00 0.00 0.00 0.00 0.00 0.00 0.00 0.00 0.00 0.00 0.00 0.00 0.00 0.00 0.00 0.00 0.00 0.00 0.00 0.00 0.00 0.00 0.00 0.00 0.00 0.00 0.00 0.00 0.00 0.00 0.00 0.00 0.00 0.00 0.00 0.00 0.00 0.00 0.00 0.00 0.00
0.00 0.00 0.00 0.00 0.00 0.00 0.00 0.00 0.00 0.00 0.00 0.00 0.00 0.00 0.00 0.00 0.00 0.00 0.00 0.00 0.00 0.00 0.00 0.00 0.00 0.00 0.00 0.00 0.00 0.00 0.00 0.00 0.00 0.00 0.00 0.00 0.00 0.00 0.00 0.00 0.00 0.00 0.00 0.00 0.00
0.00 0.00 0.00 0.00 0.00 0.00 0.00 0.00 0.00 0.00 0.00 0.00 0.00 0.00 0.00 0.00 0.00 0.00 0.00 0.00 0.00 0.00 0.00 0.00 0.00 0.00 0.00 0.00 0.00 0.00 0.00 0.00 0.00 0.00 0.00 0.00 0.00 0.00 0.00 0.00 0.00 0.00 0.00 0.00 0.00
0.00 0.00 0.00 0.00 0.00 0.00 0.00 0.00 0.00 0.00 0.00 0.00 0.00 0.00 0.00 0.00 0.00 0.00 0.00 0.00 0.00 0.00 0.00 0.00 0.00 0.00 0.00 0.00 0.00 0.00 0.00 0.00 0.00 0.00 0.00 0.00 0.00 0.00 0.00 0.00 0.00 0.00 0.00 0.00 0.00
0.00 0.00 0.00 0.00 0.00 0.00 0.00 0.00 0.00 0.00 0.00 0.00 0.00 0.00 0.00 0.00 0.00 0.00 0.00 0.00 0.00 0.00 0.00 0.00 0.00 0.00 0.00 0.00 0.00 0.00 0.00 0.00 0.00 0.00 0.00 0.00 0.00 0.00 0.00 0.00 0.00 0.00 0.00 0.00 0.00
MSLP
1016.84 1016.52 1016.23 1015.94 1015.67 1015.48 1015.33 1015.17 1014.95 1014.73 1014.53 1014.38 1014.21 1014.03 1013.85 1013.76 1013.20 1012.63 1010.53 1009.54 1009.32 1009.79 1009.95 1008.30 1007.83 1007.13 1006.77 1006.07 1006.09 1005.28 1004.38 1002.44 1000.96 1000.17 1000.11 1000.28 1000.85 1001.01 1001.87 1001.37 1001.89 1002.19 1002.20 1003.23 1003.74
1016.82 1016.50 1016.17 1015.85 1015.56 1015.31 1015.11 1014.94 1014.71 1014.55 1014.33 1014.17 1014.03 1013.85 1013.71 1013.70 1012.20 1009.84 1009.93 1009.62 1009.88 1009.96 1009.01 1007.57 1006.61 1006.42 1005.82 1005.46 1005.83 1005.76 1004.83 1003.43 1002.52 1001.98 1001.74 1001.32 1001.83 1001.36 1001.84 1001.43 1001.66 1002.43 1003.26 1003.67 1003.66
1016.73 1016.32 1016.01 1015.72 1015.42 1015.14 1014.90 1014.71 1014.52 1014.33 1014.09 1013.92 1013.83 1013.72 1013.57 1013.52 1010.93 1008.37 1009.64 1009.75 1010.01 1009.85 1008.31 1007.11 1006.23 1005.74 1005.09 1004.63 1005.23 1005.26 1005.22 1004.25 1003.51 1003.39 1003.25 1003.01 1002.49 1002.27 1002.07 1001.74 1001.51 1001.67 1002.23 1003.26 1003.72
1016.64 1016.20 1015.88 1015.58 1015.27 1014.98 1014.76 1014.57 1014.38 1014.18 1013.99 1013.76 1013.65 1013.61 1013.53 1012.70 1008.82 1008.66 1009.75 1010.00 1009.97 1009.41 1007.77 1006.79 1006.15 1005.21 1004.55 1003.96 1004.15 1004.96 1004.70 1004.76 1004.07 1003.83 1004.06 1003.32 1003.23 1002.91 1002.47 1002.29 1002.14 1003.05 1003.39 1003.75 1003.74
1016.53 1016.10 1015.75 1015.42 1015.11 1014.86 1014.64 1014.43 1014.24 1014.06 1013.87 1013.69 1013.56 1013.52 1013.33 1010.19 1008.20 1009.28 1009.86 1009.85 1009.41 1008.31 1007.12 1006.18 1005.46 1004.73 1003.88 1003.57 1003.62 1004.46 1004.20 1004.48 1004.52 1004.03 1004.28 1004.31 1003.51 1003.49 1003.34 1002.83 1002.76 1003.68 1004.02 1004.08 1003.87
1016.37 1015.94 1015.58 1015.24 1014.94 1014.69 1014.45 1014.26 1014.09 1013.89 1013.69 1013.49 1013.40 1013.53 1012.03 1008.43 1008.14 1008.61 1008.52 1008.48 1007.58 1007.10 1006.39 1005.86 1005.14 1004.58 1004.19 1003.60 1003.92 1003.61 1003.69 1004.05 1004.31 1004.09 1004.23 1004.40 1004.06 1003.99 1003.38 1003.26 1003.52 1003.89 1004.06 1003.66 1003.69
1016.22 1015.77 1015.38 1015.03 1014.74 1014.46 1014.19 1013.97 1013.84 1013.67 1013.46 1013.25 1013.20 1012.76 1009.97 1007.95 1007.87 1008.02 1008.11 1007.31 1007.34 1006.55 1006.06 1005.96 1005.71 1005.64 1004.34 1004.20 1004.24 1004.39 1004.19 1003.74 1003.48 1003.94 1003.98 1004.09 1004.19 1003.36 1002.87 1003.35 1003.78 1003.76 1003.76 1003.72 1003.74
1016.07 1015.64 1015.23 1014.86 1014.53 1014.22 1013.91 1013.68 1013.54 1013.39 1013.17 1012.95 1013.01 1011.73 1008.65 1008.03 1007.71 1007.77 1007.51 1007.32 1007.46 1007.25 1006.70 1006.82 1006.46 1005.47 1005.04 1004.47 1004.75 1004.31 1003.90 1002.91 1001.94 1003.28 1003.96 1004.83 1003.06 1001.32 1002.71 1003.61 1003.84 1003.61 1003.48 1003.61 1003.89
1015.99 1015.52 1015.10 1014.74 1014.36 1013.96 1013.60 1013.30 1013.21 1013.07 1012.93 1012.77 1012.21 1010.41 1007.81 1008.58 1007.69 1007.55 1007.39 1007.04 1007.02 1007.15 1007.21 1007.34 1006.60 1005.32 1005.10 1004.67 1003.90 1003.22 1002.36 1001.65 1001.99 1003.26 1003.52 1004.04 1002.92 1002.93 1003.59 1003.77 1003.81 1003.66 1003.47 1003.56 1003.76
1015.94 1015.42 1014.98 1014.58 1014.18 1013.80 1013.43 1013.07 1012.87 1013.08 1012.64 1011.43 1010.12 1008.88 1007.56 1007.21 1007.60 1007.87 1007.63 1007.62 1007.08 1006.85 1006.83 1006.74 1005.78 1004.95 1004.31 1003.56 1002.32 1001.40 1001.25 1001.57 1001.58 1002.83 1003.91 1003.57 1002.95 1002.67 1002.65 1003.16 1003.75 1003.47 1003.52 1003.70 1003.97
1015.90 1015.35 1014.86 1014.40 1014.02 1013.69 1013.19 1012.48 1012.42 1011.28 1009.82 1008.74 1008.02 1007.39 1007.27 1007.44 1007.75 1007.34 1007.54 1007.27 1007.00 1006.60 1005.70 1005.57 1004.64 1003.50 1002.62 1002.92 1003.01 1002.84 1002.43 1002.10 1002.21 1003.12 1004.47 1003.91 1002.95 1002.51 1002.72 1002.92 1003.51 1003.50 1003.54 1004.05 1004.62
1015.93 1015.31 1014.76 1014.29 1013.89 1013.66 1013.22 1010.02 1010.00 1009.51 1008.42 1008.20 1008.02 1007.45 1007.50 1007.25 1006.62 1007.06 1007.38 1006.66 1006.40 1005.32 1005.36 1005.04 1003.91 1003.75 1004.48 1004.51 1004.22 1003.66 1003.16 1002.87 1002.92 1003.74 1004.66 1003.97 1003.04 1002.83 1002.71 1002.80 1003.48 1003.88 1004.27 1004.68 1005.39
1015.87 1015.26 1014.66 1014.12 1013.76 1013.37 1010.97 1010.44 1009.72 1009.37 1007.79 1007.68 1007.41 1006.86 1006.95 1006.68 1006.71 1006.90 1006.64 1006.29 1005.50 1005.17 1004.86 1004.01 1004.33 1005.21 1005.19 1004.90 1004.71 1004.02 1003.92 1003.80 1004.25 1004.36 1004.13 1003.11 1002.51 1001.20 1002.22 1003.53 1004.18 1004.76 1004.96 1005.31 1005.68
1015.82 1015.14 1014.56 1014.09 1013.78 1010.74 1010.08 1010.13 1009.53 1009.67 1007.40 1007.31 1006.74 1006.74 1006.85 1006.69 1006.92 1007.37 1007.02 1006.47 1005.77 1005.18 1005.37 1004.61 1005.50 1005.50 1005.32 1004.89 1005.22 1004.54 1004.94 1005.50 1005.19 1004.74 1003.41 1003.01 1002.12 1001.46 1001.86 1003.33 1004.18 1004.64 1005.23 1005.56 1006.16
1015.74 1015.04 1014.42 1014.29 1012.22 1010.04 1010.39 1009.98 1009.65 1009.76 1006.65 1006.83 1006.37 1006.65 1006.68 1006.31 1006.70 1006.97 1007.24 1006.31 1005.96 1005.96 1005.95 1005.65 1005.86 1005.78 1005.59 1005.41 1006.22 1005.69 1006.27 1005.95 1005.49 1004.87 1004.10 1002.90 1002.00 1001.04 1001.96 1002.37 1003.16 1004.67 1005.19 1005.78 1006.37
1015.60 1014.91 1014.31 1012.54 1011.43 1010.33 1010.18 1010.10 1010.05 1008.63 1006.24 1006.52 1006.35 1006.11 1006.10 1006.51 1006.71 1006.98 1006.99 1007.05 1007.11 1006.65 1006.53 1006.48 1007.05 1006.82 1006.45 1006.86 1007.03 1006.92 1006.48 1005.66 1005.04 1004.35 1003.22 1001.91 1002.25 1001.25 1001.76 1002.90 1003.31 1004.06 1005.36 1006.06 1006.47
1015.55 1014.73 1014.30 1012.15 1010.32 1010.33 1010.15 1009.83 1008.60 1006.79 1006.95 1006.68 1006.21 1006.40 1006.12 1006.48 1006.84 1007.12 1007.01 1007.22 1006.92 1006.70 1006.26 1006.92 1006.98 1007.63 1007.65 1006.87 1006.80 1006.82 1006.14 1004.68 1003.66 1003.02 1002.39 1002.93 1002.96 1002.26 1002.62 1003.55 1004.44 1004.64 1004.92 1006.06 1007.01
1015.28 1014.62 1012.89 1011.39 1010.84 1010.63 1010.10 1009.11 1007.61 1006.97 1006.68 1007.31 1007.03 1006.80 1006.66 1007.11 1007.16 1007.53 1007.50 1007.19 1008.31 1008.22 1007.11 1006.58 1006.96 1007.68 1008.24 1007.88 1007.35 1007.11 1007.22 1006.10 1005.24 1004.34 1003.14 1003.02 1002.46 1001.71 1003.48 1004.48 1005.31 1005.78 1006.07 1006.17 1006.98
1014.77 1012.95 1011.15 1011.03 1011.19 1010.94 1009.80 1007.87 1006.84 1007.31 1007.70 1007.50 1007.22 1006.88 1006.92 1007.67 1008.00 1008.03 1008.20 1008.50 1009.46 1009.53 1008.87 1008.04 1007.46 1008.50 1008.93 1008.76 1008.46 1007.52 1007.04 1007.54 1007.36 1006.34 1005.06 1003.58 1002.60 1002.04 1002.95 1004.59 1005.75 1006.50 1007.19 1007.62 1008.30
1014.18 1011.45 1010.29 1010.89 1011.16 1010.66 1009.27 1008.27 1008.04 1008.73 1008.78 1008.34 1007.56 1007.95 1007.32 1007.88 1008.38 1008.35 1008.52 1010.11 1010.22 1010.64 1010.51 1009.74 1009.19 1008.67 1009.10 1009.39 1008.82 1008.61 1008.65 1008.30 1007.59 1006.99 1005.98 1004.54 1004.01 1003.42 1004.20 1005.34 1006.60 1007.40 1008.14 1008.98 1009.60
1014.04 1010.72 1010.48 1010.60 1010.75 1009.62 1008.13 1008.01 1008.88 1009.56 1009.48 1009.17 1008.71 1008.71 1008.85 1008.95 1009.29 1008.95 1009.30 1010.95 1011.37 1011.32 1011.33 1011.03 1010.72 1009.37 1009.67 1008.50 1008.24 1008.57 1008.36 1008.56 1008.83 1009.08 1007.94 1006.73 1005.50 1005.06 1005.91 1006.35 1006.98 1007.69 1007.99 1008.50 1009.29
1012.91 1010.09 1010.30 1010.24 1009.65 1008.54 1008.10 1009.24 1010.62 1009.88 1009.94 1009.84 1009.88 1009.89 1009.93 1010.26 1009.94 1010.02 1010.25 1011.32 1012.60 1012.46 1011.97 1012.16 1011.99 1010.50 1009.36 1008.95 1009.81 1010.08 1009.67 1009.62 1009.76 1010.08 1009.60 1008.73 1006.90 1006.59 1006.46 1007.15 1007.76 1007.98 1008.49 1009.20 1010.07
1012.56 1010.59 1010.18 1010.11 1008.63 1008.40 1009.78 1010.12 1010.52 1010.42 1010.59 1010.44 1010.53 1010.91 1011.09 1010.79 1011.29 1011.11 1011.57 1012.76 1013.42 1013.23 1013.26 1013.30 1012.38 1011.49 1009.96 1009.52 1010.25 1010.23 1010.08 1010.87 1011.11 1011.38 1010.99 1010.01 1008.04 1007.61 1007.95 1007.94 1008.41 1008.91 1009.57 1010.39 1010.89
1013.53 1010.70 1010.23 1010.11 1010.29 1009.98 1010.05 1010.15 1010.71 1011.55 1011.47 1011.49 1011.31 1011.65 1011.56 1011.37 1011.65 1011.67 1011.79 1012.92 1013.96 1014.31 1015.10 1015.09 1013.92 1012.90 1011.53 1010.47 1010.51 1010.49 1010.57 1010.72 1010.95 1011.32 1010.84 1010.23 1008.53 1008.91 1008.65 1008.71 1009.29 1010.24 1011.06 1011.40 1011.71
1014.09 1013.24 1013.12 1010.82 1011.03 1011.17 1011.33 1011.50 1011.18 1011.52 1012.02 1012.17 1011.91 1012.12 1012.24 1012.85 1011.95 1011.92 1012.42 1012.92 1013.40 1014.83 1015.24 1014.99 1014.15 1013.25 1012.35 1011.85 1011.47 1011.12 1010.94 1010.98 1010.98 1011.03 1010.71 1010.23 1009.47 1009.23 1009.57 1010.11 1010.89 1011.61 1012.23 1012.85 1013.39
1015.34 1014.66 1013.58 1012.83 1012.69 1012.06 1012.64 1012.16 1012.21 1012.59 1012.96 1012.34 1012.92 1012.83 1013.24 1013.28 1013.19 1013.29 1013.17 1013.49 1013.70 1014.12 1014.69 1015.13 1014.93 1014.40 1013.30 1012.64 1011.80 1011.31 1011.27 1011.31 1011.37 1011.37 1011.20 1010.93 1010.37 1010.54 1010.99 1011.83 1012.17 1013.06 1013.89 1014.55 1014.50
1017.15 1016.28 1015.20 1013.69 1012.97 1012.46 1012.57 1013.06 1013.39 1013.98 1013.90 1013.93 1014.09 1014.08 1013.91 1014.33 1014.59 1014.61 1014.63 1014.72 1014.82 1014.97 1015.20 1015.60 1015.67 1015.87 1014.38 1013.15 1012.77 1012.12 1011.66 1011.77 1012.06 1012.37 1012.61 1012.38 1012.32 1012.67 1012.78 1013.67 1014.52 1015.10 1015.57 1015.54 1015.55
Thickness
5697 5699 5700 5701 5703 5704 5704 5704 5705 5706 5707 5707 5708 5708 5709 5709 5713 5721 5730 5748 5758 5759 5762 5778 5782 5788 5796 5791 5797 5803 5778 5787 5814 5828 5833 5846 5835 5850 5854 5847 5849 5854 5849 5851 5859
5696 5697 5699 5701 5702 5703 5703 5703 5704 5704 5704 5704 5704 5705 5705 5704 5715 5729 5736 5742 5745 5752 5761 5767 5772 5782 5780 5785 5784 5772 5766 5782 5811 5815 5812 5827 5825 5833 5832 5837 5837 5837 5843 5848 5853
5696 5698 5699 5701 5702 5703 5703 5703 5702 5702 5702 5702 5702 5701 5702 5700 5713 5730 5731 5735 5739 5748 5765 5775 5781 5782 5775 5790 5778 5775 5755 5784 5797 5805 5809 5808 5816 5830 5822 5818 5838 5832 5836 5841 5842
5696 5698 5699 5701 5702 5703 5703 5702 5701 5701 5701 5700 5700 5699 5698 5704 5707 5730 5728 5730 5737 5748 5763 5767 5770 5768 5770 5774 5790 5762 5778 5779 5793 5801 5796 5800 5812 5807 5817 5822 5834 5829 5832 5831 5832
5696 5697 5699 5701 5702 5703 5702 5702 5701 5700 5700 5699 5698 5697 5700 5715 5720 5725 5725 5730 5739 5753 5757 5762 5763 5771 5768 5781 5786 5770 5778 5783 5785 5794 5792 5795 5798 5797 5801 5823 5827 5826 5821 5820 5824
5696 5698 5699 5700 5702 5702 5703 5702 5701 5700 5700 5699 5698 5696 5704 5711 5735 5731 5736 5739 5750 5755 5760 5766 5767 5778 5773 5776 5772 5785 5785 5780 5784 5788 5787 5780 5785 5791 5803 5816 5812 5811 5811 5818 5819
5696 5698 5700 5701 5701 5702 5703 5703 5702 5701 5700 5700 5698 5701 5713 5720 5739 5739 5740 5747 5752 5759 5755 5766 5772 5764 5776 5766 5782 5775 5763 5777 5785 5783 5781 5788 5770 5779 5805 5806 5801 5802 5807 5810 5813
5696 5698 5700 5701 5702 5703 5704 5705 5704 5703 5702 5702 5699 5707 5713 5736 5740 5740 5746 5745 5751 5756 5758 5763 5768 5767 5767 5778 5767 5759 5765 5756 5790 5782 5781 5771 5765 5805 5805 5794 5789 5797 5802 5802 5804
5695 5697 5699 5701 5702 5704 5706 5707 5706 5705 5704 5703 5706 5712 5713 5732 5728 5739 5745 5739 5747 5750 5753 5756 5759 5758 5762 5751 5752 5764 5753 5769 5767 5779 5776 5768 5767 5776 5790 5785 5781 5787 5793 5794 5795
5695 5698 5700 5702 5703 5705 5706 5707 5707 5705 5707 5712 5720 5711 5725 5721 5729 5733 5742 5740 5737 5741 5738 5740 5748 5746 5754 5755 5742 5766 5768 5771 5769 5764 5763 5762 5767 5782 5789 5781 5776 5782 5785 5784 5783
5695 5698 5700 5703 5704 5705 5707 5714 5709 5710 5720 5717 5721 5720 5723 5733 5736 5731 5737 5734 5735 5733 5725 5741 5738 5743 5765 5760 5760 5762 5760 5759 5766 5764 5744 5749 5760 5772 5779 5774 5769 5772 5774 5772 5769
5695 5698 5701 5703 5704 5704 5707 5722 5719 5723 5711 5726 5724 5727 5730 5734 5721 5727 5738 5725 5724 5723 5735 5734 5734 5745 5748 5749 5746 5749 5746 5749 5757 5753 5737 5742 5748 5760 5766 5766 5762 5759 5757 5756 5753
5694 5698 5701 5703 5705 5706 5723 5717 5729 5729 5716 5717 5726 5727 5727 5735 5719 5720 5735 5730 5728 5724 5731 5734 5731 5740 5736 5735 5732 5741 5734 5735 5728 5739 5746 5747 5743 5761 5758 5752 5749 5746 5747 5746 5743
5693 5697 5701 5703 5702 5726 5720 5725 5729 5726 5706 5704 5716 5723 5728 5729 5712 5729 5735 5729 5725 5721 5724 5731 5732 5727 5727 5728 5729 5722 5731 5726 5721 5720 5718 5745 5713 5748 5747 5733 5736 5735 5734 5734 5731
5692 5696 5700 5700 5714 5719 5719 5726 5728 5716 5685 5714 5718 5740 5729 5720 5719 5717 5732 5729 5713 5715 5719 5709 5715 5717 5715 5719 5721 5713 5721 5717 5718 5714 5716 5731 5725 5748 5748 5732 5727 5725 5726 5724 5722
5691 5695 5699 5709 5716 5722 5723 5723 5716 5690 5680 5705 5720 5715 5713 5715 5713 5717 5717 5725 5720 5710 5713 5708 5717 5714 5712 5713 5711 5714 5709 5717 5720 5718 5703 5732 5719 5735 5735 5721 5725 5722 5714 5713 5711
5689 5694 5697 5707 5711 5720 5721 5712 5688 5689 5713 5700 5706 5711 5711 5703 5702 5703 5699 5695 5693 5686 5690 5696 5699 5702 5705 5699 5709 5704 5699 5695 5703 5710 5712 5719 5704 5719 5731 5720 5716 5716 5712 5700 5699
5688 5692 5703 5709 5713 5714 5712 5696 5675 5699 5701 5707 5704 5705 5695 5699 5697 5694 5692 5689 5689 5687 5689 5686 5674 5689 5692 5688 5684 5689 5684 5677 5660 5682 5704 5721 5698 5726 5718 5714 5706 5703 5703 5700 5685
5688 5699 5707 5709 5707 5708 5697 5686 5696 5696 5699 5695 5699 5692 5690 5691 5687 5686 5683 5678 5674 5678 5667 5673 5678 5687 5682 5685 5686 5682 5681 5689 5666 5684 5680 5707 5722 5741 5723 5696 5684 5679 5678 5675 5668
5690 5703 5706 5705 5703 5700 5690 5674 5689 5692 5691 5692 5681 5686 5681 5682 5677 5681 5678 5670 5667 5671 5675 5669 5654 5681 5678 5678 5682 5675 5680 5658 5671 5643 5647 5684 5687 5697 5693 5674 5662 5655 5650 5645 5644
5685 5694 5702 5704 5701 5694 5685 5688 5686 5687 5687 5679 5677 5674 5674 5671 5670 5673 5671 5662 5663 5663 5667 5662 5654 5664 5668 5671 5670 5667 5667 5664 5660 5650 5635 5636 5663 5692 5672 5668 5657 5649 5649 5638 5627
5685 5683 5700 5702 5682 5695 5689 5683 5666 5679 5684 5678 5677 5671 5666 5662 5662 5662 5659 5656 5654 5656 5648 5653 5643 5642 5659 5674 5665 5655 5652 5654 5630 5622 5635 5632 5637 5679 5667 5657 5646 5640 5632 5621 5609
5677 5683 5697 5693 5677 5682 5675 5672 5672 5671 5668 5669 5664 5664 5663 5658 5636 5653 5650 5649 5644 5644 5640 5642 5639 5626 5643 5655 5648 5640 5648 5639 5631 5621 5606 5602 5626 5660 5646 5638 5631 5617 5608 5599 5593
5662 5666 5676 5679 5676 5669 5666 5667 5661 5663 5660 5662 5660 5658 5654 5652 5654 5644 5646 5642 5636 5633 5620 5621 5622 5620 5619 5637 5641 5626 5631 5633 5624 5592 5605 5608 5622 5622 5624 5616 5606 5592 5584 5579 5572
5651 5641 5643 5657 5657 5658 5658 5656 5656 5651 5657 5656 5652 5649 5644 5617 5642 5640 5639 5636 5638 5615 5617 5617 5611 5623 5630 5629 5627 5623 5621 5621 5614 5613 5598 5606 5607 5612 5605 5591 5585 5575 5565 5553 5543
5629 5630 5644 5643 5644 5649 5634 5647 5645 5644 5641 5646 5636 5642 5637 5626 5628 5618 5628 5623 5620 5624 5615 5612 5598 5606 5611 5617 5622 5615 5617 5612 5609 5606 5602 5599 5596 5600 5593 5579 5568 5555 5540 5526 5523
5614 5621 5625 5622 5639 5642 5642 5638 5634 5631 5635 5634 5628 5625 5626 5621 5620 5619 5617 5614 5611 5605 5600 5596 5591 5580 5589 5611 5605 5592 5603 5600 5594 5591 5581 5569 5576 5575 5568 5552 5539 5527 5516 5510 5505